Powrót do katalogu

GLOBALSTAR M035

AktywnyŁącznośćMEO
NORAD 25851·PAYLOAD·🇺🇸 United States

Wystrzelony Jul 10, 1999 z Cape Canaveral Space Force Station

Loading…

Następne Przeloty (najbliższe 24 godziny)

TLE

ŚwieżeSource: Space-Track

Epoka: Sep 14, 2026, 20:46 UTC

1 25851U 99037A   26257.86528029 -.00000027  00000-0  13749-2 0  9997
2 25851  51.9927 120.9804 0014214   1.9862  12.8950 11.04543016146504

Śledź GLOBALSTAR M035 w czasie rzeczywistym z AllMySat

Download on the App Store